• în Republica Moldova
  • Lista ţărilor
  • Pe 7 zile
  • Temperatura apei
  • Hartă satelitară
  • Meteo pe hartă
  • Widget-uri
  • user-avatar
    Intrare

    Meteo pe oră la Salzburg

    Astăzi, 21 Iulie, Vineri

    Timp Temperatura Precipitaţii Vânt Presiune Umiditate
    00:00 +11°C° 0,3 mm 1 m/s 628 mmHg 96%
    01:00 +10°C° 0 mm 1 m/s 627 mmHg 93%
    02:00 +9°C° 0 mm 1 m/s 627 mmHg 93%
    03:00 +9°C° 0 mm 1 m/s 627 mmHg 92%
    04:00 +8°C° 0 mm 1 m/s 626 mmHg 91%
    05:00 +10°C° 0 mm 1 m/s 627 mmHg 89%
    06:00 +11°C° 0 mm 1 m/s 628 mmHg 86%
    07:00 +13°C° 0 mm 1 m/s 628 mmHg 84%
    08:00 +15°C° 0 mm 1 m/s 629 mmHg 72%
    09:00 +19°C° 0 mm 1 m/s 630 mmHg 61%
    10:00 +21°C° 0 mm 1 m/s 630 mmHg 49%
    11:00 +21°C° 0,2 mm 2 m/s 630 mmHg 49%
    12:00 +23°C° 0,2 mm 2 m/s 630 mmHg 48%
    13:00 +24°C° 0,2 mm 2 m/s 630 mmHg 48%
    14:00 +23°C° 0,1 mm 2 m/s 630 mmHg 49%
    15:00 +23°C° 0,1 mm 2 m/s 630 mmHg 51%
    16:00 +21°C° 0,1 mm 2 m/s 629 mmHg 53%
    17:00 +20°C° 0,4 mm 2 m/s 629 mmHg 62%
    18:00 +18°C° 0,4 mm 2 m/s 628 mmHg 70%
    19:00 +17°C° 0,4 mm 2 m/s 628 mmHg 79%
    20:00 +16°C° 0 mm 2 m/s 627 mmHg 81%
    21:00 +14°C° 0 mm 2 m/s 627 mmHg 83%
    22:00 +13°C° 0 mm 2 m/s 627 mmHg 84%
    23:00 +13°C° 0 mm 2 m/s 627 mmHg 83%

    Mâine, 22 Iulie, Sâmbătă

    Timp Temperatura Precipitaţii Vânt Presiune Umiditate
    00:00 +12°C° 0 mm 2 m/s 626 mmHg 82%
    01:00 +12°C° 0 mm 2 m/s 626 mmHg 81%
    02:00 +10°C° 0 mm 2 m/s 626 mmHg 80%
    03:00 +10°C° 0 mm 2 m/s 626 mmHg 79%
    04:00 +10°C° 0 mm 1 m/s 626 mmHg 77%
    05:00 +12°C° 0 mm 1 m/s 627 mmHg 74%
    06:00 +13°C° 0 mm 1 m/s 627 mmHg 70%
    07:00 +15°C° 0 mm 1 m/s 628 mmHg 67%
    08:00 +18°C° 0 mm 1 m/s 629 mmHg 62%
    09:00 +20°C° 0 mm 1 m/s 629 mmHg 57%
    10:00 +22°C° 0 mm 1 m/s 630 mmHg 52%
    11:00 +22°C° 0,3 mm 1 m/s 630 mmHg 53%
    12:00 +22°C° 0,3 mm 1 m/s 630 mmHg 54%
    13:00 +22°C° 0,3 mm 1 m/s 630 mmHg 55%
    14:00 +22°C° 1,1 mm 1 m/s 630 mmHg 61%
    15:00 +21°C° 1,1 mm 1 m/s 630 mmHg 66%
    16:00 +21°C° 1,1 mm 1 m/s 629 mmHg 72%
    17:00 +19°C° 1,3 mm 1 m/s 629 mmHg 77%
    18:00 +18°C° 1,3 mm 1 m/s 629 mmHg 83%
    19:00 +15°C° 1,3 mm 0 m/s 629 mmHg 88%
    20:00 +15°C° 0,5 mm 1 m/s 628 mmHg 89%
    21:00 +14°C° 0,5 mm 1 m/s 628 mmHg 91%
    22:00 +13°C° 0,5 mm 1 m/s 628 mmHg 92%
    23:00 +12°C° 0,2 mm 1 m/s 628 mmHg 92%

    Poimâine, 23 Iulie, Duminică

    Timp Temperatura Precipitaţii Vânt Presiune Umiditate
    00:00 +12°C° 0,2 mm 1 m/s 628 mmHg 93%
    01:00 +12°C° 0,2 mm 1 m/s 628 mmHg 94%
    02:00 +11°C° 0,4 mm 1 m/s 627 mmHg 94%
    03:00 +11°C° 0,4 mm 1 m/s 627 mmHg 95%
    04:00 +11°C° 0,4 mm 1 m/s 627 mmHg 95%
    05:00 +12°C° 0,6 mm 1 m/s 628 mmHg 93%
    06:00 +13°C° 0,6 mm 1 m/s 628 mmHg 91%
    07:00 +14°C° 0,6 mm 1 m/s 629 mmHg 89%
    08:00 +16°C° 0,4 mm 1 m/s 629 mmHg 83%
    09:00 +17°C° 0,4 mm 2 m/s 629 mmHg 78%
    10:00 +18°C° 0,4 mm 2 m/s 630 mmHg 72%
    11:00 +17°C° 0,4 mm 2 m/s 630 mmHg 74%
    12:00 +17°C° 0,4 mm 2 m/s 630 mmHg 77%
    13:00 +17°C° 0,4 mm 2 m/s 629 mmHg 79%
    14:00 +16°C° 0,6 mm 2 m/s 629 mmHg 82%
    15:00 +16°C° 0,6 mm 2 m/s 629 mmHg 85%
    16:00 +15°C° 0,6 mm 1 m/s 629 mmHg 88%
    17:00 +15°C° 0,6 mm 1 m/s 628 mmHg 91%
    18:00 +14°C° 0,6 mm 1 m/s 628 mmHg 93%
    19:00 +13°C° 0,6 mm 1 m/s 628 mmHg 96%
    20:00 +13°C° 2,4 mm 1 m/s 628 mmHg 96%
    21:00 +13°C° 2,4 mm 1 m/s 628 mmHg 97%
    22:00 +12°C° 2,4 mm 1 m/s 628 mmHg 98%
    23:00 +12°C° 1,6 mm 1 m/s 628 mmHg 98%

    24 Iulie, Luni

    Timp Temperatura Precipitaţii Vânt Presiune Umiditate
    00:00 +12°C° 1,6 mm 1 m/s 627 mmHg 98%
    01:00 +12°C° 1,6 mm 1 m/s 627 mmHg 98%
    02:00 +11°C° 0,3 mm 1 m/s 627 mmHg 98%
    03:00 +11°C° 0,3 mm 1 m/s 626 mmHg 98%
    04:00 +10°C° 0,3 mm 0 m/s 626 mmHg 98%
    05:00 +10°C° 0,8 mm 0 m/s 625 mmHg 98%
    06:00 +11°C° 0,8 mm 1 m/s 625 mmHg 98%
    07:00 +11°C° 0,8 mm 1 m/s 625 mmHg 98%
    08:00 +11°C° 1,2 mm 1 m/s 624 mmHg 97%
    09:00 +12°C° 1,2 mm 1 m/s 624 mmHg 96%
    10:00 +12°C° 1,2 mm 1 m/s 624 mmHg 95%
    11:00 +12°C° 0,7 mm 1 m/s 624 mmHg 93%
    12:00 +13°C° 0,7 mm 2 m/s 624 mmHg 92%
    13:00 +13°C° 0,7 mm 2 m/s 623 mmHg 90%
    14:00 +12°C° 5,5 mm 2 m/s 623 mmHg 93%
    15:00 +9°C° 5,5 mm 3 m/s 622 mmHg 95%
    16:00 +8°C° 5,5 mm 3 m/s 622 mmHg 97%
    17:00 +8°C° 2 mm 3 m/s 622 mmHg 97%
    18:00 +7°C° 2 mm 2 m/s 622 mmHg 97%
    19:00 +6°C° 2 mm 2 m/s 622 mmHg 96%
    20:00 +6°C° 0,3 mm 2 m/s 622 mmHg 96%
    21:00 +6°C° 0,3 mm 2 m/s 622 mmHg 96%
    22:00 +5°C° 0,3 mm 2 m/s 622 mmHg 96%
    23:00 +5°C° 0 mm 2 m/s 622 mmHg 96%

    25 Iulie, Marţi

    Timp Temperatura Precipitaţii Vânt Presiune Umiditate
    00:00 +5°C° 0 mm 2 m/s 622 mmHg 96%
    01:00 +5°C° 0 mm 2 m/s 622 mmHg 96%
    02:00 +4°C° 0 mm 2 m/s 621 mmHg 96%
    03:00 +4°C° 0 mm 2 m/s 621 mmHg 96%
    04:00 +4°C° 0 mm 2 m/s 621 mmHg 96%
    05:00 +4°C° 0,1 mm 2 m/s 621 mmHg 95%
    06:00 +5°C° 0,1 mm 2 m/s 621 mmHg 93%
    07:00 +6°C° 0,1 mm 2 m/s 622 mmHg 92%
    08:00 +7°C° 0,2 mm 2 m/s 622 mmHg 87%
    09:00 +8°C° 0,2 mm 2 m/s 622 mmHg 82%
    10:00 +9°C° 0,2 mm 2 m/s 622 mmHg 76%
    11:00 +10°C° 0,4 mm 2 m/s 623 mmHg 75%
    12:00 +10°C° 0,4 mm 3 m/s 623 mmHg 74%
    13:00 +11°C° 0,4 mm 3 m/s 623 mmHg 73%
    14:00 +10°C° 0,6 mm 3 m/s 623 mmHg 75%
    15:00 +10°C° 0,6 mm 3 m/s 623 mmHg 77%
    16:00 +10°C° 0,6 mm 3 m/s 623 mmHg 79%
    17:00 +9°C° 0,4 mm 2 m/s 623 mmHg 83%
    18:00 +8°C° 0,4 mm 2 m/s 622 mmHg 88%
    19:00 +7°C° 0,4 mm 2 m/s 622 mmHg 92%
    20:00 +7°C° 0,5 mm 2 m/s 622 mmHg 93%
    21:00 +6°C° 0,5 mm 2 m/s 622 mmHg 95%
    22:00 +5°C° 0,5 mm 2 m/s 622 mmHg 96%
    23:00 +5°C° 0,7 mm 2 m/s 622 mmHg 96%

    26 Iulie, Miercuri

    Timp Temperatura Precipitaţii Vânt Presiune Umiditate
    00:00 +5°C° 0,7 mm 2 m/s 622 mmHg 96%
    01:00 +5°C° 0,7 mm 2 m/s 622 mmHg 95%
    02:00 +5°C° 0,9 mm 2 m/s 622 mmHg 96%
    03:00 +5°C° 0,9 mm 2 m/s 622 mmHg 96%
    04:00 +5°C° 0,9 mm 2 m/s 622 mmHg 96%
    05:00 +5°C° 1 mm 2 m/s 622 mmHg 96%
    06:00 +5°C° 1 mm 2 m/s 623 mmHg 96%
    07:00 +5°C° 1 mm 2 m/s 623 mmHg 96%
    08:00 +6°C° 0,9 mm 2 m/s 623 mmHg 93%
    09:00 +7°C° 0,9 mm 2 m/s 624 mmHg 90%
    10:00 +8°C° 0,9 mm 2 m/s 624 mmHg 87%
    11:00 +10°C° 0,2 mm 2 m/s 625 mmHg 78%
    12:00 +13°C° 0,2 mm 2 m/s 625 mmHg 69%
    13:00 +15°C° 0,2 mm 2 m/s 626 mmHg 61%
    14:00 +15°C° 0,1 mm 2 m/s 626 mmHg 60%
    15:00 +15°C° 0,1 mm 2 m/s 626 mmHg 60%
    16:00 +15°C° 0,1 mm 2 m/s 626 mmHg 60%
    17:00 +14°C° 0,1 mm 2 m/s 626 mmHg 67%
    18:00 +13°C° 0,1 mm 1 m/s 626 mmHg 75%
    19:00 +11°C° 0,1 mm 1 m/s 625 mmHg 82%
    20:00 +10°C° 0 mm 1 m/s 625 mmHg 86%
    21:00 +8°C° 0 mm 1 m/s 625 mmHg 90%
    22:00 +6°C° 0 mm 2 m/s 625 mmHg 93%
    23:00 +7°C° 0 mm 1 m/s 625 mmHg 93%
    Arată mai mult